Location: Hochstatterhof
(48.7256°N, 10.3487°E)
Time: 02:24:08
(UTC+00:00)

Resurs 1-4 Rocket - Pass Details

Date: 26 September 2023
Orbit: 800 x 812 km, 98.7° (Epoch: 04 December)

Event Time Altitude Azimuth Distance (km) Brightness Sun altitude
Rises 01:37:33 0° 12° (NNE) 3,322 6.0 -32.8°
Reaches altitude 10° 01:39:54 10° 9° (N) 2,388 5.1 -32.5°
Enters shadow 01:43:07 37° 355° (N) 1,231 3.2 -32.2°
